Home   Weather   Narsarsuaq   Past weeks
Flag for Greenland

Past Weather in Narsarsuaq, Greenland — Yesterday and Last 2 Weeks

Now
36 °F

Fog.


Feels Like: 36 °F
Forecast: 39 / 28 °F
Wind: 2 mph from Northeast

Location: Narsarsuaq

Current Time: Oct 20, 2019 at 11:23:08 pm

Latest Report: Oct 20, 2019 at 10:50 pm


Visibility: 0 mi

Pressure: 29.65 "Hg

Humidity: 93%

Dew Point: 34 °F

Location of NarsarsuaqLocation

Past Weather in Narsarsuaq — Graph

°F

Narsarsuaq Temperature Yesterday

Maximum temperature yesterday: 48 °F (at 2:50 pm)
Minimum temperature yesterday: 32 °F (at 12:50 am)
Average temperature yesterday: 41 °F

High & Low Weather Summary for the Past Weeks

 TemperatureHumidityPressure
High52 °F (Oct 7, 12:50 am)100% (Oct 12, 10:50 am)30.30 "Hg (Oct 12, 10:50 am)
Low25 °F (Oct 15, 6:50 am)32% (Oct 7, 1:50 am)29.06 "Hg (Oct 5, 9:50 pm)
Average37 °F68%29.79 "Hg
* Reported Oct 5 9:50 pm — Oct 20 9:50 pm, Narsarsuaq. Weather by CustomWeather, © 2019

Note: Actual official high and low records may vary slightly from our data, if they occured in-between our weather recording intervals... More about our weather records

Advertising

Narsarsuaq Weather History for the Previous 24 Hours

Scroll right to see more
 ConditionsComfort  
Time TempWeatherWind HumidityBarometerVisibility
9:50 pm
Sun, Oct 20
37 °FFog.5 mph87%29.65 "Hg2 mi
8:50 pm39 °FFog.2 mph93%29.65 "Hg1 mi
7:50 pm39 °FFog.1 mph87%29.65 "Hg0 mi
6:50 pm39 °FFog.5 mph93%29.62 "Hg1 mi
5:50 pm39 °FFog.1 mph93%29.62 "Hg1 mi
4:50 pm39 °FPartly sunny.No wind93%29.62 "HgN/A
3:50 pm43 °FQuite cool.2 mph81%29.62 "HgN/A
2:50 pm46 °FPassing clouds.5 mph82%29.65 "HgN/A
1:50 pm46 °FPassing clouds.3 mph82%29.65 "HgN/A
12:50 pm45 °FBroken clouds.5 mph87%29.68 "HgN/A
11:50 am43 °FPartly sunny.2 mph93%29.68 "HgN/A
10:50 am43 °FBroken clouds.3 mph93%29.68 "HgN/A
9:50 am41 °FBroken clouds.No wind87%29.68 "HgN/A
8:50 am41 °FBroken clouds.No wind93%29.65 "HgN/A
7:50 am39 °FPartly cloudy.5 mph93%29.65 "Hg5 mi
6:50 am41 °FPartly cloudy.2 mph93%29.68 "Hg4 mi
5:50 am41 °FPassing clouds.3 mph93%29.65 "HgN/A
4:50 am41 °FPassing clouds.2 mph87%29.65 "HgN/A
3:50 am43 °FPassing clouds.3 mph87%29.62 "HgN/A
2:50 am41 °FSnow flurries. Passing clouds.3 mph87%29.62 "HgN/A
1:50 am43 °FPassing clouds.5 mph87%29.62 "HgN/A
12:50 am45 °FRain. Partly cloudy.2 mph81%29.59 "HgN/A
11:50 pm
Sat, Oct 19
45 °FSprinkles. Passing clouds.3 mph81%29.62 "HgN/A
Weather by CustomWeather, © 2019

See weather overview